Location: LDNL
(36.4545°S, 141.6685°E)
Time: 09:28:58
(UTC+10:00)

Vanguard 1 - Pass Details

Date: 13 August 2022
Orbit: 649 x 3832 km, 34.2° (Epoch: 27 September)

Event Time Altitude Azimuth Distance (km) Brightness Sun altitude
Rises 18:18:01 0° 277° (W) 4,262 15.8 -4.7°
Reaches altitude 10° 18:21:28 10° 278° (W) 2,900 14.4 -5.3°
Maximum altitude 18:27:48 71° 0° (N) 814 9.7 -6.6°
Drops below altitude 10° 18:32:19 10° 85° (E) 2,086 11.2 -7.5°
Enters shadow 18:32:42 - 85° (E) 2,245 11.3 -7.5°
